Вернуться в каталог

YAOGAN-36 04C

АктивенВоенныеVLEO
NORAD 54750·PAYLOAD·🇨🇳 China

Запущен Dec 14, 2022 с Xichang Satellite Launch Center

Loading…

Ближайшие Пролёты (ближайшие 24 часа)

TLE

СвежийSource: Space-Track

Эпоха: Sep 14, 2026, 14:18 UTC

1 54750U 22171E   26257.59636906  .00014152  00000-0  40994-3 0  9992
2 54750  34.9812 331.9031 0005984 224.9307 135.0927 15.34698959209224

Отслеживайте YAOGAN-36 04C в реальном времени с AllMySat

Download on the App Store